Location: Arrodets-la-Barthe
(43.0306°N, 0.2829°E)
Time: 12:55:46
(UTC+00:00)

ESTCUBE 1 - Pass Details

Date: 08 April 2023
Orbit: 640 x 654 km, 97.9° (Epoch: 29 May)

Event Time Altitude Azimuth Distance (km) Brightness Sun altitude
Exits shadow 22:19:39 25° 326° (NNW) 1,335 ? -34.6°
Drops below altitude 10° 22:21:37 10° 337° (NNW) 2,072 ? -34.8°
Sets 22:23:54 0° 343° (NNW) 2,986 ? -35.0°
